Location: Cormont
(50.5693°N, 1.7416°E)
Time: 12:06:40
(UTC+00:00)

H-2A R/B - Pass Details

Date: 21 October 2019
Orbit: 733 x 837 km, 98.3° (Epoch: 20 November)

Event Time Altitude Azimuth Distance (km) Brightness Sun altitude
Exits shadow 18:42:58 32° 80° (E) 1,380 2.8 -18.7°
Maximum altitude 18:43:45 34° 63° (ENE) 1,343 2.8 -18.8°
Drops below altitude 10° 18:48:36 10° 0° (N) 2,458 4.7 -19.6°
Sets 18:51:09 0° 352° (N) 3,401 5.6 -20.0°
